This demonstration page uses our WeatherBlox Daily Observations layout. Learn more.

Left ArrowRight Arrow

34.02893, -84.19858

Hourly Observations for November 8, 2016

Temp ( °F °C ) Dew Point ( °F °C ) Humidity (%) Winds ( mph kmh ) Pressure ( in mb ) Visibility ( mi km ) Precip ( " mm )
12:53 am 00:53 Clear 47 8.3 37 2.8 69 69 Calm 30.33 1027 10 16 0.00 0.00
1:53 am 01:53 Clear 45 7.2 37 2.8 74 74 Calm 30.32 1027 10 16 0.00 0.00
2:53 am 02:53 Clear 43 6.1 37 2.8 80 80 Calm 30.32 1027 10 16 0.00 0.00
3:53 am 03:53 Clear 49 9.4 38 3.3 66 66 Calm 30.30 1026 10 16 0.00 0.00
4:53 am 04:53 Clear 47 8.3 38 3.3 71 71 Calm 30.31 1026 10 16 0.00 0.00
5:53 am 05:53 Clear 49 9.4 39 3.9 69 69 Calm 30.32 1027 10 16 0.00 0.00
6:53 am 06:53 Clear 44 6.7 38 3.3 79 79 NNE 3 6 30.33 1027 10 16 0.00 0.00
7:53 am 07:53 Sunny 50 10 39 3.9 66 66 E 6 9 30.32 1027 10 16 0.00 0.00
8:53 am 08:53 Sunny 53 11.7 39 3.9 59 59 Calm 30.33 1027 10 16 0.00 0.00
9:53 am 09:53 Sunny 55 12.8 39 3.9 55 55 Calm 30.34 1027 10 16 0.00 0.00
10:53 am 10:53 Sunny 60 15.6 38 3.3 44 44 Calm 30.33 1027 10 16 0.00 0.00
11:53 am 11:53 Sunny 63 17.2 37 2.8 38 38 Calm 30.30 1026 10 16 0.00 0.00
12:53 pm 12:53 Sunny 63 17.2 36 2.2 37 37 VRB 3 6 30.27 1025 10 16 0.00 0.00
1:53 pm 13:53 Sunny 63 17.2 37 2.8 38 38 E 5 7 30.24 1024 10 16 0.00 0.00
2:53 pm 14:53 Sunny 65 18.3 36 2.2 34 34 E 3 6 30.22 1024 10 16 0.00 0.00
3:53 pm 15:53 Sunny 67 19.4 32 0 27 27 Calm 30.19 1022 10 16 0.00 0.00
4:53 pm 16:53 Sunny 64 17.8 33 0.6 32 32 Calm 30.19 1022 10 16 0.00 0.00
5:53 pm 17:53 Clear 60 15.6 38 3.3 44 44 NW 3 6 30.18 1022 10 16 0.00 0.00
6:53 pm 18:53 Clear 57 13.9 39 3.9 51 51 Calm 30.21 1023 10 16 0.00 0.00
7:53 pm 19:53 Clear 53 11.7 39 3.9 59 59 Calm 30.19 1023 10 16 0.00 0.00
8:53 pm 20:53 Clear 49 9.4 40 4.4 71 71 Calm 30.19 1022 10 16 0.00 0.00
9:53 pm 21:53 Clear 52 11.1 42 5.6 69 69 Calm 30.18 1022 10 16 0.00 0.00
10:53 pm 22:53 Clear 51 10.6 43 6.1 74 74 Calm 30.15 1021 10 16 0.00 0.00
11:53 pm 23:53 Clear 50 10 42 5.6 74 74 Calm 30.15 1021 10 16 0.00 0.00

Powered by AerisWeather